DW9227 Weather Reports


time (UTC)temp
C
wind
direction
speed
KPH
gust
KPH
rain 1hr
cm
rain 24hr
cm
rain mn
cm
humidity
%
barometer
mb
20260505211534 12 112 0.0 1.6 0.00 0.89 0.89 92 1013.3
20260505210031 12 112 0.0 0.0 0.00 0.89 0.89 92 1013.4
20260505204533 12 112 0.0 0.0 0.00 0.89 0.89 92 1013.4
20260505203034 12 112 0.0 1.6 0.00 0.89 0.89 92 1013.3
20260505201534 12 112 0.0 0.0 0.00 0.89 0.89 92 1013.2
20260505200029 12 112 0.0 0.0 0.00 0.89 0.89 92 1013.2
20260505194529 12 112 0.0 0.0 0.03 0.89 0.89 92 1013.2
20260505193031 12 112 0.0 0.0 0.03 0.89 0.89 91 1013.2
20260505191528 12 112 0.0 0.0 0.03 0.89 0.89 91 1013.0
20260505190036 12 112 0.0 9.7 0.03 0.89 0.89 89 1013.0
20260505184530 13 112 0.0 1.6 0.00 0.89 0.89 89 1012.7
20260505183028 13 116 0.0 0.0 0.00 0.89 0.89 89 1012.8
20260505181626 13 115 0.0 6.4 0.00 0.89 0.89 88 1012.6
20260505180034 13 117 0.0 11.3 0.00 0.89 0.89 87 1012.7
20260505174523 13 116 0.0 1.6 0.00 0.89 0.89 86 1012.7
20260505173023 13 116 0.0 3.2 0.00 0.89 0.89 86 1012.8
20260505171524 13 106 0.0 9.7 0.00 0.89 0.89 86 1012.8
20260505170021 13 123 0.0 17.7 0.00 0.89 0.89 83 1012.8
20260505164523 14 126 0.0 4.8 0.00 0.89 0.89 82 1012.9
20260505163020 14 126 0.0 0.0 0.00 0.89 0.89 82 1012.9
20260505161520 14 126 0.0 1.6 0.00 0.89 0.89 81 1012.9
20260505153022 14 84 0.0 9.7 0.00 0.89 0.89 80 1013.0
20260505151519 15 95 0.0 6.4 0.00 0.89 0.89 80 1012.9
20260505124508 13 73 0.0 0.0 0.00 0.89 0.89 84 1013.5
20260505123007 13 73 0.0 4.8 0.00 0.89 0.89 85 1013.6
20260505121506 13 73 0.0 4.8 0.00 0.89 0.89 85 1013.7
20260505120006 13 74 0.0 4.8 0.00 0.89 0.89 85 1013.6
20260505114505 13 124 0.0 1.6 0.00 0.89 0.89 87 1013.7
20260505113006 13 125 0.0 9.7 0.00 0.89 0.89 88 1013.7
20260505111513 13 125 0.0 1.6 0.00 0.89 0.89 90 1013.9
20260505101501 13 310 0.0 3.2 0.00 0.89 0.89 92 1014.2
20260505094600 12 301 0.0 4.8 0.00 0.89 0.89 89 1014.1
20260505093059 12 299 0.0 0.0 0.00 0.89 0.89 89 1014.1
20260505091620 12 299 0.0 0.0 0.00 0.89 0.89 89 1014.2
20260505090122 12 299 0.0 0.0 0.00 0.89 0.89 89 1014.0
20260505084614 12 299 0.0 0.0 0.00 0.89 0.89 89 1013.8
20260505083110 12 299 0.0 1.6 0.00 0.89 0.89 90 1013.8
20260505081603 12 299 0.0 0.0 0.00 0.89 0.89 91 1013.7
20260505074554 12 299 0.0 0.0 0.00 0.89 0.89 92 1013.9
20260505073059 12 299 0.0 0.0 0.03 0.89 0.89 93 1013.9
20260505071612 11 299 0.0 0.0 0.05 0.89 0.89 93 1014.1
20260505070053 11 299 0.0 0.0 0.10 0.89 0.89 94 1014.2
20260505064549 11 299 0.0 0.0 0.15 0.89 0.89 93 1014.3
20260505063052 11 299 0.0 0.0 0.23 0.86 0.86 93 1014.4
20260505061547 11 299 0.0 0.0 0.33 0.84 0.84 92 1014.5
20260505060058 11 299 0.0 0.0 0.30 0.79 0.79 92 1014.5
20260505054546 11 299 0.0 0.0 0.30 0.71 0.71 92 1014.4
20260505053046 11 299 0.0 1.6 0.25 0.61 0.61 91 1014.4
20260505051548 11 299 0.0 1.6 0.23 0.51 0.51 91 1014.3
20260505041551 11 299 0.0 0.0 0.20 0.30 0.30 91 1014.4
20260505040041 11 299 0.0 0.0 0.15 0.23 0.23 91 1014.4
20260505034538 11 299 0.0 0.0 0.13 0.18 0.18 90 1014.5
20260505033036 11 299 0.0 0.0 0.08 0.15 0.15 88 1014.5
20260505031534 11 299 0.0 0.0 0.05 0.10 0.10 87 1014.4
20260505030031 11 299 0.0 0.0 0.05 0.08 0.08 87 1014.5
20260505024529 12 299 0.0 0.0 0.03 0.05 0.05 86 1014.7
20260505023028 12 299 0.0 0.0 0.05 0.05 0.05 85 1014.8
20260505021525 12 299 0.0 0.0 0.05 0.05 0.05 86 1015.1
20260505020033 12 299 0.0 0.0 0.05 0.05 0.05 84 1015.2
20260505014531 12 299 0.0 0.0 0.05 0.05 0.05 83 1015.4
20260505013018 12 299 0.0 0.0 0.03 0.03 0.03 81 1015.6
20260505011514 13 299 0.0 0.0 0.00 0.00 0.00 80 1015.8
20260505010009 13 300 0.0 0.0 0.00 0.00 0.00 78 1015.9
20260505004508 13 300 0.0 0.0 0.00 0.00 0.00 74 1016.2
20260505003004 13 300 0.0 0.0 0.00 0.00 0.00 71 1016.3
20260505001502 14 300 0.0 0.0 0.00 0.00 0.00 66 1016.4
20260505000107 15 300 0.0 0.0 0.00 0.00 0.00 66 1016.5
20260504234555 15 300 0.0 0.0 0.00 0.00 0.00 60 1016.6
20260504233057 15 300 0.0 9.7 0.00 0.00 0.00 59 1016.9
20260504231553 15 300 0.0 8.0 0.00 0.00 0.00 57 1017.0
20260504230050 15 311 0.0 8.0 0.00 0.00 0.00 57 1017.3
20260504224549 15 287 1.6 8.0 0.00 0.00 0.00 58 1017.4
20260504223101 15 286 1.6 12.9 0.00 0.00 0.00 57 1017.4
20260504221545 15 286 1.6 14.5 0.00 0.00 0.00 60 1017.4
20260504220041 15 308 0.0 4.8 0.00 0.00 0.00 61 1017.8
20260504214541 15 308 0.0 6.4 0.00 0.00 0.00 63 1018.0
20260504213043 15 309 0.0 6.4 0.00 0.00 0.00 61 1018.2
20260504211609 15 293 0.0 9.7 0.00 0.00 0.00 62 1018.4